Regional Weather Roundup
Issued by NWS

Home | Current Version | Previous Version | Text Only | Print | Product List | Glossary Off
Versions: 1 2 3 4 5 6 7 8 9 10 11 12 13 14 15 16 17 18 19 20 21 22 23 24 25 26 27 28 29 30 31 32 33 34 35 36 37 38 39 40 41 42 43 44 45 46 47 48 49 50

000
ASUS43 KMKX 081711
RWRWI

WISCONSIN REGIONAL WEATHER ROUNDUP
NATIONAL WEATHER SERVICE MILWAUKEE/SULLIVAN WI
1100 AM CST THU DEC 08 2016

NOTE: "FAIR" INDICATES FEW OR NO CLOUDS BELOW 12,000 FEET WITH NO
SIGNIFICANT WEATHER AND/OR OBSTRUCTIONS TO VISIBILITY.

WIZ001-002-006>008-014>016-023>028-081800-
NORTHWEST WISCONSIN

CITY           SKY/WX    TMP DP  RH WIND       PRES   REMARKS
SUPERIOR ARPT  CLOUDY    25  16  69 NW17      30.28R WCI  11
ASHLAND        LGT SNOW  27  21  78 NW9       30.22R WCI  18
HAYWARD        CLOUDY    23  15  71 VRB6G20   30.22R WCI  16
SIREN          CLOUDY    23  15  72 NW14      30.29R WCI  10
CUMBERLAND     CLOUDY    23  14  68 NW14      30.25R WCI  11
RICE LAKE      FLURRIES  23  16  74 NW10G16   30.27R WCI  12
CHETEK         CLOUDY    23  16  75 NW9G18    30.26R WCI  13
LADYSMITH      CLOUDY    24  17  75 NW15      30.22R WCI  11
EAU CLAIRE     CLOUDY    24  16  71 NW10      30.27R WCI  14
MENOMONIE      CLOUDY    25  17  72 W14G21    30.29R WCI  13
NEW RICHMOND   CLOUDY    23  16  75 NW16      30.31R WCI  10
OSCEOLA        FLURRIES  24  17  75 NW10G17   30.35R WCI  13
$$

WIZ003>005-009-010-017-018-081800-
NORTH CENTRAL WISCONSIN

CITY           SKY/WX    TMP DP  RH WIND       PRES   REMARKS
MANITOWISH WTR FLURRIES  24  21  89 NW15      30.09R WCI  11
ARBOR VITAE    PTSUNNY   26  20  78 NW10G17   30.09S WCI  15
WOODRUFF       PTSUNNY   26  20  78 NW10G17   30.09S WCI  15
RHINELANDER    CLOUDY    25  18  74 NW13G20   30.09R WCI  14
EAGLE RIVER    LGT SNOW  25  18  75 NW10      30.06S WCI  14
LAND O LAKES   LGT SNOW  26  21  82 NW8       30.07R WCI  18
PHILLIPS       CLOUDY    22  17  78 NW12G17   30.14S WCI  11
TOMAHAWK       CLOUDY    24  17  74 W13G20    30.13R WCI  12
MEDFORD        CLOUDY    22  15  76 NW13      30.15S WCI  10
MERRILL        CLOUDY    24  16  73 NW15G21   30.14R WCI  11
$$

WIZ029-030-035-036-043>047-081800-
CENTRAL WISCONSIN

CITY           SKY/WX    TMP DP  RH WIND       PRES   REMARKS
WAUSAU         CLOUDY    24  17  74 NW13      30.14R WCI  12
MOSINEE        CLOUDY    21  19  93 NW14      30.16R WCI   8
MARSHFIELD     CLOUDY    22  16  78 NW17      30.17R WCI   8
STEVENS POINT  CLOUDY    21  15  78 W8G20     30.18S WCI  11
WAUPACA        PTSUNNY   27  17  68 W14G22    30.17F WCI  15
WAUTOMA        CLOUDY    22  16  78 W15       30.21R WCI   9
WISC RAPIDS    CLOUDY    22  16  78 NW16      30.21R WCI   8
CAMP DOUGLAS   CLOUDY    21  16  79 W14       30.24R WCI   8
$$

WIZ011>013-019>022-031-037>040-048>050-081800-
NORTHEAST WISCONSIN

CITY           SKY/WX    TMP DP  RH WIND       PRES   REMARKS
ANTIGO         CLOUDY    23  18  78 NW15G21   30.09S WCI  10
SHAWANO        PTSUNNY   31  19  61 NW12G17   30.13R WCI  21
OCONTO         SUNNY     29  17  60 W14G24    30.09S WCI  19
STURGEON BAY   CLOUDY    28  20  71 NW18G24   30.07R WCI  15
GREEN BAY      SUNNY     29  19  66 W17G25    30.12R WCI  17
MANITOWOC      FLURRIES  25  17  72 W18G26    30.12R WCI  11
APPLETON       PTSUNNY   25  16  68 W16G28    30.13R WCI  12
CLINTONVILLE   SUNNY     28  18  64 NW18G24   30.14R WCI  16
OSHKOSH        PTSUNNY   23  15  71 W22G30    30.15S WCI   8
$$

WIZ032>034-041-042-053>061-081800-
SOUTHWEST WISCONSIN

CITY           SKY/WX    TMP DP  RH WIND       PRES   REMARKS
LA CROSSE      FLURRIES  25  16  68 NW13      30.31R WCI  14
SPARTA         CLOUDY    22  16  77 W9        30.28S WCI  12
VIROQUA        CLOUDY    20  15  82 NW15      30.26S WCI   6
BOSCOBEL       CLOUDY    23  14  68 W9        30.34R WCI  13
PRAIRIE DU CHI FLURRIES  22  13  69 W13G18    30.35R WCI  10
PLATTEVILLE    CLOUDY    19  14  81 W14G23    30.31S WCI   6
$$

WIZ056-057-062-063-064-067-068-081800-
SOUTH CENTRAL WISCONSIN

CITY           SKY/WX    TMP DP  RH WIND       PRES   REMARKS
REEDSBURG      LGT SNOW  20  15  81 W13       30.26S WCI   7
BARABOO/DELLS  FLURRIES  20  14  76 W14       30.24S WCI   7
LONE ROCK      CLOUDY    22  12  65 W13       30.30R WCI  10
MINERAL POINT  CLOUDY    21  16  79 W20       30.27S WCI   6
MADISON        FLURRIES  20  12  71 W13G23    30.25R WCI   7
MIDDLETON      CLOUDY    22  15  75 W14       30.25S WCI  10
WATERTOWN      CLOUDY    20  13  75 W15G21    30.22S WCI   6
MONROE         PTSUNNY   19  12  73 W20G28    30.26S WCI   4
JANESVILLE     PTSUNNY   21  12  68 W15G22    30.27R WCI   8
$$

WIZ051-052-058>065-066-070>072-081800-
SOUTHEAST WISCONSIN

CITY           SKY/WX    TMP DP  RH WIND       PRES   REMARKS
MILWAUKEE      FLURRIES  22  10  60 W21G29    30.20R WCI   6
WAUKESHA       CLOUDY    19  10  68 W21G29    30.20S WCI   3
MILWAUKEE/TIMM PTSUNNY   21  10  63 W22G30    30.20S WCI   5
RACINE         MOSUNNY   22  10  60 W16G30    30.21S WCI   8
BURLINGTON     CLOUDY    24  17  74 W17G25    30.24R WCI  11
KENOSHA        PTSUNNY   21  11  65 W24G31    30.22S WCI   4
FOND DU LAC    CLOUDY    22  13  68 NW16G29   30.17S WCI   8
SHEBOYGAN      PTSUNNY   24  15  68 W24G31    30.13S WCI   8
WEST BEND      NOT AVBL
JUNEAU         FLURRIES  20  13  75 W14       30.21S WCI   6
$$

LSZ147-162-081800-
LAKE SUPERIOR

STATION/POSITION TIME  TEMP    WIND        PRES    WAVE
                       AIR SEA DIR/SP/G            HT/PER
                 (UTC) (F)     (DEG/KT/KT) (MB)    (FT/S)
DEVILS ISLAND    1600   27     340/ 23/ 27 1023.2R
PORT WING        1630   27     330/ 17/ 21 1024.0R
SAXON HARBOR     1630   29     330/ 20/ 23 1021.7R
$$

LMZ867-665-643>646-081800-
LAKE MICHIGAN

STATION/POSITION TIME  TEMP    WIND        PRES    WAVE
                       AIR SEA DIR/SP/G            HT/PER
                 (UTC) (F)     (DEG/KT/KT) (MB)    (FT/S)
CHAMBERS ISLAND  1640   30     270/  7/ 17 1016.9R
NORTHPORT PIER   1640   30     300/ 14/ 22 1016.6R
SISTER BAY       1636   33     300/ 23/ 27   N/A
ALGOMA LAKESHORE 1621          300/ 12/ 18   N/A
KEWAUNEE LAKESHO 1648   25     290/ 16/ 21 1018.2R
SHEBOYGAN LAKESH 1700   23     280/ 21/ 28 1020.9F
PORT WASHINGTON  1630   22     270/ 11/ 25 1022.4S
MILWAUKEE LAKESH 1650   22     280/ 20/ 25   N/A
KENOSHA   LAKESH 1700   22     270/ 22/ 29 1022.7
$$

TC  - TEMPERATURE IN CELSIUS
VSB - VISIBILITY IN STATUTE MILES
WCI - WIND CHILL INDEX
HX  - HEAT INDEX





USA.gov is the U.S. government's official web portal to all federal, state and local government web resources and services.